This is the latest recevied weather packets stored in our database for station/object ZL3GL-4. If no packets are shown the sender has not sent any weather packets the latest 1 day(s).
| Time | Temp. | Humidity | Pressure | Rain* | Wind** | Luminosity | Snow |
|---|---|---|---|---|---|---|---|
| 1778052292 | 10.56° C | 100% | 1020.5 hPa | 0 mm | 1.34 m/s, 284° | - | - |
| 1778051448 | 10.56° C | 100% | 1020.6 hPa | 0 mm | 0.89 m/s, 285° | - | - |
| 1778050602 | 10.56° C | 100% | 1020.8 hPa | 0 mm | 0.89 m/s, 300° | - | - |
| 1778049759 | 10.56° C | 100% | 1020.7 hPa | 0 mm | 1.34 m/s, 318° | - | - |
| 1778048915 | 10.56° C | 100% | 1020.5 hPa | 0 mm | 2.68 m/s, 328° | - | - |
| 1778048074 | 11.11° C | 100% | 1020.2 hPa | 0 mm | 1.34 m/s, 200° | - | - |
| 1778047229 | 11.11° C | 100% | 1020.3 hPa | 0 mm | 1.79 m/s, 222° | - | - |
| 1778046385 | 10.56° C | 100% | 1020.4 hPa | 0 mm | 1.34 m/s, 252° | - | - |
| 1778045539 | 10.56° C | 100% | 1020.5 hPa | 0 mm | 0 m/s | - | - |
| 1778044698 | 11.11° C | 100% | 1020.4 hPa | 0 mm | 1.34 m/s, 291° | - | - |
| 1778043851 | 11.11° C | 100% | 1020.1 hPa | 0 mm | 1.79 m/s, 3° | - | - |
| 1778043009 | 11.11° C | 100% | 1019.8 hPa | 0 mm | 0 m/s | - | - |
| 1778042163 | 11.11° C | 100% | 1020 hPa | 0 mm | 0 m/s | - | - |
| 1778041320 | 11.11° C | 100% | 1019.7 hPa | 0 mm | 1.79 m/s, 195° | - | - |
| 1778040474 | 11.11° C | 100% | 1019.8 hPa | 0 mm | 1.34 m/s, 165° | - | - |
| 1778039630 | 11.67° C | 100% | 1019.8 hPa | 0 mm | 2.68 m/s, 28° | - | - |
| 1778038783 | 11.67° C | 100% | 1019.6 hPa | 0 mm | 0 m/s | - | - |
| 1778037938 | 11.67° C | 100% | 1019.6 hPa | 0 mm | 2.24 m/s, 60° | - | - |
| 1778037098 | 11.67° C | 100% | 1019.6 hPa | 0 mm | 0.89 m/s, 149° | - | - |
| 1778036250 | 11.67° C | 100% | 1019.7 hPa | 0 mm | 0.45 m/s, 315° | - | - |
| 1778035404 | 11.67° C | 100% | 1019.3 hPa | 0 mm | 0.89 m/s, 156° | - | - |
| 1778034559 | 11.67° C | 100% | 1019.3 hPa | 0 mm | 1.34 m/s, 63° | - | - |
| 1778033714 | 11.67° C | 100% | 1019.4 hPa | 0 mm | 1.34 m/s, 359° | - | - |
| 1778032873 | 11.11° C | 100% | 1019.3 hPa | 0 mm | 0 m/s | - | - |
| 1778032031 | 11.11° C | 100% | 1019.3 hPa | 0 mm | 0.89 m/s, 326° | - | - |
* Rain latest hour (hover to see other rain measurements)
** Current wind speed in m/s (hover to see current wind gust speed)